Retour au catalogue

STARLINK-30763

ActifCommunicationsVLEO
NORAD 58163·PAYLOAD·🇺🇸 United States

Lancé Oct 29, 2023 depuis Vandenberg Space Force Base

Loading…

Prochains Passages (prochaines 24 heures)

TLE

FraisSource: CelesTrak SupGP

Époque: Sep 14, 2026, 20:51 UTC

1 58163C 23166P   26257.86923611  .00030024  00000+0  88733-3 0  2576
2 58163  53.1612  47.7066 0001201  76.3926 227.7631 15.34367074    19

Suivez STARLINK-30763 en temps réel avec AllMySat

Download on the App Store